Home > Weather > Brattleboro > Past weeks

Flag for USA Past Weather in Brattleboro, Vermont, USA — Yesterday and Last 2 Weeks

Now
59 °F

Sunny.


Feels Like: 59 °F
Forecast: 56 / 88 °F
Wind: No wind

Location: Keene / Dillant

Current Time: Jun 26, 2016 at 7:55:59 AM

Latest Report: Jun 26, 2016 at 7:15 AM


Visibility: 10 mi

Pressure: 30.23 "Hg

Humidity: 82%

Dew Point: 54 °F

Location of BrattleboroLocation

Past Weather in Brattleboro — Graph

°F

Brattleboro Temperature Yesterday

Maximum temperature yesterday: 84 °F (at 2:55 PM)
Minimum temperature yesterday: 48 °F (at 5:15 AM)
Average temperature yesterday: 68 °F

High & Low Weather Summary for the Past Weeks

 TemperatureHumidityPressure
High90 °F (Jun 20, 2:35 PM)100% (Jun 11, 10:35 PM)30.34 "Hg (Jun 11, 10:35 PM)
Low45 °F (Jun 11, 6:15 AM)10% (Jun 11, 8:15 AM)29.54 "Hg (Jun 12, 5:35 AM)
Average65 °F61%29.95 "Hg
* Reported Jun 11 6:15 AM — Jun 26 6:35 AM, Brattleboro, Weather by CustomWeather, © 2016

Note: Actual official high and low records may vary slightly from our data, if they occured in-between our weather recording intervals... More about our weather records

Advertising

Brattleboro Weather History for the Previous 24 Hours

Scroll right to see more
 ConditionsComfort  
Time TempWeatherWind HumidityBarometerVisibility
6:35 AM
Sun, Jun 26
55 °FSunny.No wind88%30.23 "Hg10 mi
6:15 AM54 °FSunny.No wind94%30.23 "Hg10 mi
5:55 AM54 °FClear.No wind94%30.23 "Hg10 mi
5:35 AM54 °FClear.No wind88%30.23 "Hg10 mi
5:15 AM54 °FClear.No wind94%30.23 "Hg5 mi
4:55 AM54 °FClear.No wind94%30.25 "Hg10 mi
4:35 AM54 °FClear.No wind94%30.25 "Hg10 mi
4:15 AM54 °FClear.3 mph94%30.24 "Hg10 mi
3:55 AM55 °FClear.No wind88%30.25 "Hg10 mi
3:35 AM55 °FClear.No wind88%30.25 "Hg10 mi
3:15 AM55 °FClear.No wind94%30.24 "Hg10 mi
2:55 AM55 °FClear.No wind88%30.24 "Hg10 mi
2:35 AM57 °FClear.No wind88%30.23 "Hg10 mi
2:15 AM57 °FClear.No wind88%30.22 "Hg10 mi
1:55 AM57 °FClear.No wind88%30.22 "Hg10 mi
1:35 AM61 °FClear.No wind72%30.21 "Hg10 mi
1:15 AM63 °FClear.No wind73%30.21 "Hg10 mi
12:55 AM61 °FClear.No wind77%30.21 "Hg10 mi
12:35 AM63 °FClear.No wind73%30.21 "Hg10 mi
12:15 AM63 °FClear.No wind73%30.21 "Hg7 mi
11:55 PM
Sat, Jun 25
61 °FClear.3 mph77%30.21 "Hg10 mi
11:35 PM63 °FClear.No wind73%30.21 "Hg10 mi
11:15 PM64 °FClear.No wind64%30.21 "Hg10 mi
10:55 PM64 °FClear.No wind68%30.20 "Hg10 mi
10:35 PM66 °FClear.No wind64%30.20 "Hg10 mi
10:15 PM70 °FPassing clouds.No wind57%30.20 "Hg10 mi
9:55 PM70 °FPassing clouds.5 mph57%30.20 "Hg10 mi
9:35 PM72 °FClear.6 mph53%30.19 "Hg10 mi
9:15 PM72 °FSunny.8 mph53%30.19 "Hg10 mi
8:55 PM75 °FSunny.6 mph47%30.18 "Hg10 mi
8:35 PM73 °FSunny.No wind53%30.17 "Hg10 mi
8:15 PM73 °FSunny.No wind57%30.17 "Hg10 mi
7:55 PM77 °FSunny.No wind51%30.16 "Hg10 mi
7:35 PM81 °FSunny.3 mph42%30.16 "Hg10 mi
7:15 PM82 °FSunny.5 mph35%30.15 "Hg10 mi
6:55 PM82 °FSunny.6 mph35%30.15 "Hg10 mi
6:35 PM82 °FSunny.3 mph32%30.15 "Hg10 mi
6:15 PM84 °FSunny.5 mph29%30.15 "Hg10 mi
5:55 PM84 °FSunny.7 mph29%30.15 "Hg10 mi
5:35 PM84 °FSunny.3 mph29%30.16 "Hg10 mi
5:15 PM84 °FSunny.6 mph29%30.16 "Hg10 mi
4:55 PM84 °FSunny.5 mph33%30.16 "Hg10 mi
4:35 PM84 °FPassing clouds.7 mph33%30.17 "Hg10 mi
4:15 PM84 °FScattered clouds.7 mph33%30.17 "Hg10 mi
3:55 PM82 °FPassing clouds.3 mph35%30.16 "Hg10 mi
3:35 PM82 °FScattered clouds.3 mph32%30.17 "Hg10 mi
3:15 PM84 °FPartly sunny.7 mph33%30.17 "Hg10 mi
2:55 PM84 °FSunny.6 mph33%30.17 "Hg10 mi
2:35 PM82 °FSunny.5 mph35%30.17 "Hg10 mi
2:15 PM82 °FSunny.7 mph35%30.18 "Hg6 mi
1:55 PM81 °FSunny.8 mph37%30.19 "Hg10 mi
1:35 PM81 °FSunny.3 mph34%30.19 "Hg10 mi
12:55 PM81 °FSunny.6 mph37%30.20 "Hg10 mi
12:35 PM81 °FSunny.6 mph39%30.20 "Hg10 mi
12:15 PM79 °FSunny.5 mph42%30.21 "Hg10 mi
11:55 AM79 °FSunny.No wind42%30.21 "Hg10 mi
11:35 AM77 °FSunny.6 mph44%30.21 "Hg10 mi
11:15 AM75 °FSunny.No wind50%30.21 "Hg10 mi
10:55 AM75 °FSunny.5 mph47%30.21 "Hg9 mi
10:35 AM73 °FSunny.No wind50%30.22 "Hg10 mi
10:15 AM72 °FSunny.5 mph53%30.22 "Hg10 mi
9:55 AM72 °FSunny.No wind53%30.22 "Hg10 mi
9:35 AM70 °FSunny.No wind57%30.23 "Hg10 mi
9:15 AM68 °FSunny.No wind56%30.22 "Hg10 mi
8:55 AM66 °FSunny.No wind60%30.23 "Hg10 mi
8:35 AM64 °FSunny.No wind68%30.22 "Hg10 mi
8:15 AM61 °FSunny.No wind77%30.22 "Hg10 mi
7:55 AM59 °FSunny.No wind82%30.23 "Hg10 mi
7:35 AM57 °FSunny.No wind82%30.22 "Hg10 mi
7:15 AM55 °FSunny.No wind88%30.22 "Hg10 mi
Weather by CustomWeather, © 2016

See weather overviewHow to use our weather pages